EW6819 Weather Reports


Display with metric or nautical units.
time (UTC)temp
F
wind
direction
speed
MPH
gust
MPH
rain 1hr
in
rain 24hr
in
rain mn
in
humidity
%
barometer
mb
20260905001503 67 271 0.0 1.0 0.00 0.16 0.00 62 1014.4
20260905001003 67 271 1.0 3.0 0.00 0.16 0.00 61 1014.4
20260905000503 67 271 1.0 3.0 0.00 0.16 0.00 62 1014.3
20260905000003 67 272 2.0 4.0 0.00 0.16 0.00 61 1014.2
20260904235503 68 267 2.0 4.0 0.00 0.16 0.00 62 1014.2
20260904235003 68 268 1.0 4.0 0.00 0.16 0.00 61 1014.3
20260904234503 68 279 1.0 4.0 0.00 0.16 0.00 61 1014.1
20260904234003 68 275 1.0 4.0 0.00 0.16 0.00 61 1014.0
20260904233713 68 270 1.0 4.0 0.00 0.16 0.00 60 1013.9
20260904233003 68 261 2.0 4.0 0.00 0.16 0.00 60 1013.9
20260904232503 68 258 1.0 4.0 0.00 0.16 0.00 59 1013.9
20260904232003 68 258 1.0 6.0 0.00 0.16 0.00 59 1013.8
20260904231503 69 262 2.0 6.0 0.00 0.16 0.00 58 1013.8
20260904231003 69 261 2.0 6.0 0.00 0.16 0.00 58 1013.9
20260904230503 69 260 2.0 6.0 0.00 0.16 0.00 58 1013.8
20260904230214 69 262 1.0 6.0 0.00 0.16 0.00 57 1013.8
20260904225503 70 267 2.0 6.0 0.00 0.16 0.00 57 1013.8
20260904225003 70 266 2.0 6.0 0.00 0.16 0.00 56 1013.8
20260904224503 70 270 1.0 4.0 0.00 0.16 0.00 56 1013.7
20260904224212 70 272 1.0 4.0 0.00 0.16 0.00 56 1013.8
20260904223503 70 266 1.0 4.0 0.00 0.16 0.00 56 1013.7
20260904223003 70 264 2.0 4.0 0.00 0.16 0.00 57 1013.6
20260904222713 70 265 1.0 4.0 0.00 0.16 0.00 57 1013.4
20260904222003 71 267 1.0 6.0 0.00 0.16 0.00 55 1013.4
20260904221503 71 286 1.0 4.0 0.00 0.16 0.00 55 1013.3
20260904221214 71 285 1.0 4.0 0.00 0.16 0.00 55 1013.3
20260904220503 71 278 2.0 6.0 0.00 0.16 0.00 55 1013.3
20260904220003 71 270 2.0 8.0 0.00 0.16 0.00 56 1013.2
20260904215503 71 271 2.0 8.0 0.00 0.16 0.00 54 1013.2
20260904215003 71 278 1.0 3.0 0.00 0.16 0.00 55 1013.3
20260904214713 71 273 1.0 3.0 0.00 0.16 0.00 54 1013.3
20260904214214 72 285 1.0 6.0 0.00 0.16 0.00 55 1013.3
20260904213503 72 273 3.0 8.0 0.00 0.16 0.00 53 1013.2
20260904213214 72 269 3.0 8.0 0.00 0.16 0.00 53 1013.3
20260904212503 72 272 1.0 8.0 0.00 0.16 0.00 51 1013.4
20260904212108 72 278 1.0 8.0 0.00 0.16 0.00 53 1013.3
20260904211503 72 270 2.0 7.0 0.00 0.16 0.00 52 1013.6
20260904211003 73 280 2.0 7.0 0.00 0.16 0.00 50 1013.6
20260904210503 73 287 2.0 7.0 0.00 0.16 0.00 50 1013.6
20260904210003 73 276 1.0 7.0 0.00 0.16 0.00 51 1013.7
20260904205503 73 278 2.0 7.0 0.00 0.16 0.00 51 1013.8
20260904205003 73 293 2.0 6.0 0.00 0.16 0.00 50 1013.8
20260904204712 73 301 2.0 9.0 0.00 0.16 0.00 51 1013.8
20260904204003 74 288 2.0 9.0 0.00 0.16 0.00 47 1013.8
20260904203503 74 269 3.0 9.0 0.00 0.16 0.00 49 1013.9
20260904203003 74 261 3.0 9.0 0.00 0.16 0.00 47 1013.9
20260904202503 74 258 3.0 10.0 0.00 0.16 0.00 47 1013.8
20260904202003 74 265 2.0 10.0 0.00 0.16 0.00 49 1013.8
20260904201503 74 280 2.0 8.0 0.00 0.16 0.00 48 1013.9
20260904201003 74 269 4.0 13.0 0.00 0.16 0.00 48 1014.0
20260904200503 73 265 5.0 13.0 0.00 0.16 0.00 50 1014.0
20260904200003 73 269 5.0 13.0 0.00 0.16 0.00 48 1013.9
20260904195714 73 265 5.0 13.0 0.00 0.16 0.00 49 1014.1
20260904195003 73 255 4.0 13.0 0.00 0.16 0.00 50 1014.3
20260904194503 74 260 4.0 13.0 0.00 0.16 0.00 49 1014.3
20260904194003 74 266 5.0 13.0 0.00 0.16 0.00 49 1014.3
20260904193714 74 266 5.0 13.0 0.00 0.16 0.00 48 1014.4
20260904193003 74 271 3.0 8.0 0.00 0.16 0.00 52 1014.4
20260904192714 73 268 3.0 10.0 0.00 0.16 0.00 50 1014.4
20260904192213 73 258 4.0 13.0 0.00 0.16 0.00 49 1014.4
20260904191503 74 256 3.0 14.0 0.00 0.16 0.00 49 1014.6
20260904191003 74 268 4.0 12.0 0.00 0.16 0.00 50 1014.5
20260904190503 74 270 5.0 12.0 0.00 0.16 0.00 48 1014.6
20260904190003 75 277 4.0 14.0 0.00 0.16 0.00 49 1014.6
20260904185503 75 270 3.0 14.0 0.00 0.16 0.00 46 1014.5
20260904185003 75 276 3.0 10.0 0.00 0.16 0.00 46 1014.7
20260904184503 75 300 3.0 10.0 0.00 0.16 0.00 47 1014.6
20260904184003 75 325 4.0 9.0 0.00 0.16 0.00 47 1014.6
20260904183503 75 323 3.0 8.0 0.00 0.16 0.00 47 1014.7
20260904183003 74 310 2.0 8.0 0.00 0.16 0.00 48 1014.7
20260904182503 74 268 3.0 7.0 0.00 0.16 0.00 48 1014.9
20260904182003 74 265 5.0 14.0 0.00 0.16 0.00 48 1014.9
20260904181503 74 264 6.0 14.0 0.00 0.16 0.00 47 1014.8
20260904181213 74 258 5.0 14.0 0.00 0.16 0.00 47 1014.9
20260904180503 75 267 4.0 11.0 0.00 0.16 0.00 49 1014.9
20260904180003 75 259 4.0 12.0 0.00 0.16 0.00 48 1015.0
20260904175503 75 263 4.0 12.0 0.00 0.16 0.00 45 1015.1
20260904175003 75 261 5.0 16.0 0.00 0.16 0.00 45 1015.1
20260904174503 75 246 5.0 16.0 0.00 0.16 0.00 41 1015.1
20260904174003 76 245 4.0 11.0 0.00 0.16 0.00 43 1015.1
20260904173503 75 255 4.0 12.0 0.00 0.16 0.00 41 1015.2
20260904173003 75 278 5.0 12.0 0.00 0.16 0.00 43 1015.2
20260904172503 75 310 5.0 13.0 0.00 0.16 0.00 41 1015.5
20260904172003 75 285 5.0 13.0 0.00 0.16 0.00 42 1015.4
20260904171503 74 258 5.0 14.0 0.00 0.16 0.00 44 1015.4
20260904171003 74 264 6.0 14.0 0.00 0.16 0.00 43 1015.4
20260904170713 74 270 6.0 14.0 0.00 0.16 0.00 44 1015.4
20260904170003 74 307 4.0 10.0 0.00 0.16 0.00 41 1015.5
20260904165503 75 320 3.0 10.0 0.00 0.16 0.00 40 1015.5
20260904165003 75 319 3.0 9.0 0.00 0.16 0.00 41 1015.5
20260904164503 75 286 4.0 9.0 0.00 0.16 0.00 40 1015.5
20260904164003 74 275 4.0 12.0 0.00 0.16 0.00 43 1015.5
20260904163503 74 274 5.0 12.0 0.00 0.16 0.00 44 1015.5
20260904163003 74 316 5.0 12.0 0.00 0.16 0.00 45 1015.5
20260904162713 73 324 5.0 12.0 0.00 0.16 0.00 45 1015.5
20260904162003 74 316 5.0 10.0 0.00 0.16 0.00 42 1015.4
20260904161504 74 319 5.0 11.0 0.00 0.16 0.00 41 1015.2
20260904161003 74 341 5.0 11.0 0.00 0.16 0.00 42 1015.3
20260904160503 74 338 4.0 10.0 0.00 0.16 0.00 43 1015.5
20260904160003 74 272 3.0 9.0 0.00 0.16 0.00 43 1015.5
20260904155503 74 250 3.0 11.0 0.00 0.16 0.00 43 1015.5
20260904155003 74 272 4.0 11.0 0.00 0.16 0.00 43 1015.5
20260904154503 74 264 4.0 10.0 0.00 0.16 0.00 42 1015.5
20260904154213 74 255 4.0 10.0 0.00 0.16 0.00 47 1015.5
20260904153712 74 347 3.0 9.0 0.00 0.16 0.00 44 1015.5
20260904153213 73 346 4.0 9.0 0.00 0.16 0.00 45 1015.5
20260904152712 72 311 4.0 9.0 0.00 0.16 0.00 45 1015.7
20260904152003 72 302 5.0 11.0 0.00 0.16 0.00 44 1015.6
20260904151503 72 298 4.0 11.0 0.00 0.16 0.00 46 1015.6
20260904151003 73 310 4.0 11.0 0.00 0.16 0.00 45 1015.4
20260904150503 73 337 3.0 9.0 0.00 0.16 0.00 44 1015.4
20260904150003 73 352 3.0 9.0 0.00 0.16 0.00 47 1015.2
20260904145712 73 345 3.0 11.0 0.00 0.16 0.00 47 1015.1
20260904145213 73 344 4.0 12.0 0.00 0.16 0.00 46 1015.2
20260904144503 73 359 2.0 10.0 0.00 0.16 0.00 46 1015.4
20260904144003 72 49 2.0 7.0 0.00 0.16 0.00 47 1015.2
20260904143714 72 70 3.0 7.0 0.00 0.16 0.00 46 1015.2
20260904143003 72 74 3.0 6.0 0.00 0.16 0.00 52 1015.3
20260904142714 71 47 2.0 6.0 0.00 0.16 0.00 52 1015.2
20260904142003 70 282 2.0 7.0 0.00 0.16 0.00 49 1015.4
20260904141503 70 270 3.0 7.0 0.00 0.16 0.00 46 1015.4
20260904141213 70 261 2.0 7.0 0.00 0.16 0.00 46 1015.4
20260904140503 72 99 1.0 4.0 0.00 0.16 0.00 45 1015.6
20260904140003 72 73 2.0 5.0 0.00 0.16 0.00 48 1015.7
20260904135503 72 82 2.0 5.0 0.00 0.16 0.00 51 1015.5
20260904135003 71 97 2.0 6.0 0.00 0.16 0.00 52 1015.4
20260904134714 72 91 2.0 6.0 0.00 0.16 0.00 52 1015.2
20260904134003 71 76 2.0 5.0 0.00 0.16 0.00 53 1015.3
20260904133503 71 60 2.0 5.0 0.00 0.16 0.00 54 1015.5
20260904133003 70 60 2.0 5.0 0.00 0.16 0.00 53 1015.3
20260904132503 70 82 2.0 6.0 0.00 0.16 0.00 55 1015.6
20260904132003 69 85 1.0 6.0 0.00 0.16 0.00 56 1015.7
20260904131503 69 78 0.0 4.0 0.00 0.16 0.00 57 1015.7
20260904131003 68 88 0.0 3.0 0.00 0.16 0.00 57 1015.6
20260904130714 68 89 1.0 3.0 0.00 0.16 0.00 57 1015.6
20260904130003 67 88 1.0 3.0 0.00 0.16 0.00 58 1015.7
20260904125503 67 0 0.0 0.0 0.00 0.16 0.00 57 1015.7
20260904125212 66 0 0.0 0.0 0.00 0.16 0.00 57 1015.5
20260904124503 66 74 0.0 2.0 0.00 0.16 0.00 57 1015.6
20260904124212 66 70 0.0 2.0 0.00 0.16 0.00 57 1015.6
20260904123503 66 62 1.0 3.0 0.00 0.16 0.00 57 1015.4
20260904123214 66 52 1.0 3.0 0.00 0.16 0.00 56 1015.5
20260904122503 65 28 1.0 4.0 0.00 0.16 0.00 58 1015.4
20260904122212 65 34 1.0 4.0 0.00 0.16 0.00 58 1015.3
20260904121503 64 45 0.0 2.0 0.00 0.16 0.00 58 1015.3
20260904121003 64 326 1.0 3.0 0.00 0.16 0.00 59 1015.4
20260904120503 64 329 1.0 4.0 0.00 0.16 0.00 59 1015.3
20260904120003 63 303 1.0 6.0 0.00 0.16 0.00 60 1015.3
20260904115503 63 267 2.0 6.0 0.00 0.16 0.00 60 1015.2
20260904115212 63 264 2.0 6.0 0.00 0.16 0.00 60 1015.2
20260904114503 62 263 2.0 5.0 0.00 0.16 0.00 60 1015.3
20260904114003 62 263 1.0 4.0 0.00 0.16 0.00 60 1015.4
20260904113503 62 263 3.0 7.0 0.00 0.16 0.00 60 1015.4
20260904113003 62 266 3.0 7.0 0.00 0.16 0.00 61 1015.3
20260904112503 62 265 2.0 7.0 0.00 0.16 0.00 61 1015.2
20260904112003 62 260 1.0 7.0 0.00 0.16 0.00 60 1015.1
20260904111503 62 260 2.0 9.0 0.00 0.16 0.00 60 1015.1
20260904111003 62 261 2.0 9.0 0.00 0.16 0.00 60 1015.1
20260904110503 62 269 2.0 7.0 0.00 0.16 0.00 60 1015.1
20260904110214 62 273 1.0 6.0 0.00 0.16 0.00 61 1015.1
20260904105503 62 269 1.0 4.0 0.00 0.16 0.00 61 1015.2
20260904105003 62 266 1.0 4.0 0.00 0.16 0.00 60 1015.1
20260904104503 62 267 2.0 7.0 0.00 0.16 0.00 60 1015.0
20260904104003 62 263 3.0 7.0 0.00 0.16 0.00 60 1015.1
20260904103503 62 257 3.0 8.0 0.00 0.16 0.00 60 1015.0
20260904103003 63 258 2.0 8.0 0.00 0.16 0.00 60 1014.9
20260904102503 63 259 3.0 8.0 0.00 0.16 0.00 59 1014.9
20260904102003 63 257 4.0 8.0 0.00 0.16 0.00 59 1014.9
20260904101503 63 260 4.0 11.0 0.00 0.16 0.00 59 1014.9
20260904101003 63 261 4.0 11.0 0.00 0.16 0.00 59 1014.8
20260904100503 63 258 4.0 11.0 0.00 0.16 0.00 59 1014.8
20260904100003 63 257 3.0 10.0 0.00 0.16 0.00 58 1014.9
20260904095503 63 262 4.0 10.0 0.00 0.16 0.00 59 1014.8
20260904095003 63 265 4.0 10.0 0.00 0.16 0.00 58 1014.8
20260904094503 63 260 4.0 10.0 0.00 0.16 0.00 57 1014.7
20260904094213 64 263 4.0 10.0 0.00 0.16 0.00 58 1014.7
20260904093503 64 261 5.0 9.0 0.00 0.16 0.00 58 1014.6
20260904093003 64 259 5.0 13.0 0.00 0.16 0.00 58 1014.7
20260904092503 64 260 5.0 13.0 0.00 0.16 0.00 58 1014.7
20260904092003 64 260 5.0 10.0 0.00 0.16 0.00 59 1014.6
20260904091503 64 260 4.0 9.0 0.00 0.16 0.00 59 1014.5
20260904091003 64 259 4.0 9.0 0.00 0.16 0.00 59 1014.5
20260904090503 64 258 4.0 9.0 0.00 0.16 0.00 59 1014.5
20260904090003 64 260 4.0 10.0 0.00 0.16 0.00 59 1014.6
20260904085503 64 260 4.0 10.0 0.00 0.16 0.00 59 1014.5
20260904085213 64 261 4.0 10.0 0.00 0.16 0.00 60 1014.6
20260904084503 64 263 4.0 10.0 0.00 0.16 0.00 60 1014.6
20260904084003 64 263 4.0 10.0 0.00 0.16 0.00 60 1014.5
20260904083503 64 262 3.0 8.0 0.00 0.16 0.00 61 1014.4
20260904083003 64 251 2.0 7.0 0.00 0.16 0.00 62 1014.4
20260904082503 64 251 3.0 7.0 0.00 0.16 0.00 62 1014.3
20260904082003 64 258 3.0 9.0 0.00 0.16 0.00 62 1014.2
20260904081714 64 260 3.0 9.0 0.00 0.16 0.00 62 1014.2
20260904081003 64 259 2.0 7.0 0.00 0.16 0.00 63 1014.0
20260904080714 64 258 1.0 6.0 0.00 0.16 0.00 63 1014.0
20260904080003 64 266 2.0 6.0 0.00 0.16 0.00 64 1013.9
20260904075503 64 270 2.0 6.0 0.00 0.16 0.00 64 1013.8
20260904075003 64 276 2.0 6.0 0.00 0.16 0.00 64 1013.8
20260904074503 64 268 2.0 6.0 0.00 0.16 0.00 64 1013.9
20260904074003 64 261 3.0 9.0 0.00 0.16 0.00 64 1013.7
20260904073503 64 259 3.0 9.0 0.00 0.16 0.00 64 1013.6
20260904073003 64 258 3.0 8.0 0.00 0.16 0.00 64 1013.6
20260904072503 64 260 2.0 8.0 0.00 0.16 0.00 64 1013.7
20260904072003 63 261 1.0 6.0 0.00 0.16 0.00 64 1013.8
20260904071503 63 261 1.0 3.0 0.00 0.16 0.00 64 1013.7
20260904071003 63 261 2.0 3.0 0.00 0.16 0.00 64 1013.7
20260904070713 64 261 2.0 3.0 0.00 0.16 0.00 64 1013.7
20260904070003 64 266 2.0 4.0 0.00 0.16 0.00 64 1013.7
20260904065503 64 274 2.0 6.0 0.00 0.16 0.00 63 1013.5
20260904065003 65 290 2.0 6.0 0.00 0.16 0.00 63 1013.5
20260904064713 65 300 1.0 4.0 0.00 0.16 0.00 63 1013.5
20260904064212 66 310 1.0 4.0 0.00 0.16 0.00 64 1013.5
20260904063503 66 311 1.0 3.0 0.00 0.16 0.00 64 1013.4
20260904063214 66 310 1.0 3.0 0.00 0.16 0.00 63 1013.4
20260904062503 67 259 0.0 2.0 0.00 0.16 0.00 64 1013.6
20260904062214 67 259 1.0 3.0 0.00 0.16 0.00 64 1013.7
20260904061713 67 259 1.0 4.0 0.00 0.16 0.00 64 1013.7
20260904061003 67 261 1.0 4.0 0.00 0.16 0.00 64 1013.7
20260904060503 67 262 1.0 3.0 0.00 0.16 0.00 64 1013.8
20260904060003 67 262 1.0 3.0 0.00 0.16 0.00 64 1013.9
20260904055503 67 262 1.0 3.0 0.00 0.17 0.00 64 1013.8
20260904055214 68 266 1.0 3.0 0.00 0.18 0.00 64 1013.9
20260904054503 68 268 0.0 3.0 0.00 0.18 0.00 64 1014.2
20260904054003 68 0 0.0 0.0 0.00 0.18 0.00 64 1014.2
20260904053503 68 0 0.0 0.0 0.00 0.18 0.00 64 1014.2
20260904053003 68 0 0.0 0.0 0.00 0.18 0.00 64 1014.1
20260904052503 68 0 0.0 0.0 0.00 0.18 0.00 64 1014.1
20260904052003 68 0 0.0 0.0 0.00 0.18 0.00 64 1014.3
20260904051713 69 0 0.0 0.0 0.00 0.18 0.00 64 1014.2
20260904051003 69 346 0.0 1.0 0.00 0.18 0.00 64 1014.3
20260904050503 69 0 0.0 0.0 0.00 0.18 0.00 64 1014.3
20260904050004 69 23 0.0 1.0 0.00 0.18 0.00 64 1014.4
20260904045503 69 36 0.0 3.0 0.00 0.18 0.00 64 1014.3
20260904045003 69 39 0.0 3.0 0.00 0.18 0.00 64 1014.1
20260904044503 69 0 0.0 0.0 0.00 0.18 0.00 64 1014.2
20260904044003 69 0 0.0 0.0 0.00 0.18 0.00 64 1014.3
20260904043503 69 0 0.0 0.0 0.00 0.18 0.00 64 1014.3
20260904043003 69 0 0.0 0.0 0.00 0.18 0.00 64 1014.3
20260904042712 69 0 0.0 0.0 0.00 0.18 0.00 64 1014.3
20260904042003 69 0 0.0 0.0 0.00 0.18 0.00 63 1014.4
20260904041503 69 0 0.0 0.0 0.00 0.18 0.00 63 1014.4
20260904041003 69 0 0.0 0.0 0.01 0.18 0.00 63 1014.4
20260904040714 69 0 0.0 0.0 0.01 0.18 0.00 63 1014.4
20260904040003 69 0 0.0 0.0 0.02 0.18 0.00 64 1014.3
20260904035714 69 0 0.0 0.0 0.02 0.18 0.18 63 1014.3
20260904035003 70 0 0.0 0.0 0.04 0.18 0.18 63 1014.3
20260904034714 70 0 0.0 0.0 0.05 0.18 0.18 63 1014.3
20260904034003 70 136 0.0 1.0 0.06 0.18 0.18 63 1014.3
20260904033503 70 136 0.0 1.0 0.06 0.18 0.18 63 1014.2
20260904033003 70 0 0.0 0.0 0.07 0.18 0.18 63 1014.3
20260904032503 70 0 0.0 0.0 0.07 0.18 0.18 63 1014.3
20260904032003 70 35 0.0 2.0 0.08 0.18 0.18 63 1014.2
20260904031503 70 17 1.0 3.0 0.09 0.18 0.18 63 1014.0
20260904031003 70 12 1.0 3.0 0.09 0.17 0.17 63 1014.1
20260904030503 70 50 1.0 4.0 0.11 0.17 0.17 63 1014.3
20260904030213 70 73 1.0 4.0 0.12 0.17 0.16 63 1014.2
20260904025503 70 166 1.0 4.0 0.11 0.17 0.15 62 1014.0
20260904025003 70 188 0.0 4.0 0.11 0.18 0.14 63 1014.1
20260904024503 70 0 0.0 0.0 0.09 0.16 0.12 62 1014.2
20260904024003 70 0 0.0 0.0 0.09 0.17 0.12 63 1013.9
20260904023503 70 313 1.0 3.0 0.09 0.18 0.12 63 1014.1
20260904023213 70 313 1.0 3.0 0.08 0.17 0.11 62 1014.2
20260904022503 71 328 1.0 5.0 0.08 0.24 0.11 62 1014.3
20260904022213 71 333 0.0 5.0 0.07 0.23 0.10 62 1014.3
20260904021503 71 211 0.0 1.0 0.06 0.24 0.09 62 1014.2
20260904021003 71 274 0.0 3.0 0.06 0.23 0.08 62 1014.3
20260904020713 71 301 1.0 3.0 0.05 0.22 0.07 62 1014.2
20260904020003 71 336 1.0 5.0 0.02 0.19 0.04 62 1013.9
20260904015503 71 325 1.0 3.0 0.02 0.19 0.04 62 1013.8
20260904015003 71 0 0.0 0.0 0.01 0.18 0.03 62 1013.7
20260904014503 71 0 0.0 0.0 0.01 0.18 0.03 62 1013.8
20260904014003 71 0 0.0 0.0 0.01 0.18 0.03 62 1013.8
20260904013503 71 0 0.0 0.0 0.01 0.18 0.03 61 1013.9
20260904013003 71 0 0.0 0.0 0.01 0.18 0.03 61 1013.9
20260904012503 71 0 0.0 0.0 0.01 0.18 0.03 61 1013.7
20260904012212 71 0 0.0 0.0 0.01 0.18 0.03 61 1013.8
20260904011503 71 0 0.0 0.0 0.01 0.19 0.03 61 1013.5
20260904011003 71 0 0.0 0.0 0.00 0.18 0.02 61 1013.6
20260904010713 71 0 0.0 0.0 0.00 0.18 0.02 61 1013.6
20260904010003 71 0 0.0 0.0 0.00 0.18 0.02 61 1013.7
20260904005503 71 0 0.0 0.0 0.00 0.18 0.02 61 1013.7
20260904005214 71 0 0.0 0.0 0.00 0.18 0.02 61 1013.6
20260904004503 72 0 0.0 0.0 0.00 0.19 0.02 61 1013.8
20260904004003 72 0 0.0 0.0 0.00 0.20 0.02 61 1013.7
20260904003503 72 0 0.0 0.0 0.00 0.22 0.02 61 1013.7
20260904003214 72 0 0.0 0.0 0.00 0.23 0.02 61 1013.8
20260904002713 72 0 0.0 0.0 0.00 0.28 0.02 61 1013.7